HB9EFX-14 Weather Reports


time (UTC)temp
F
wind
direction
speed
knots
gust
knots
rain 1hr
in
rain 24hr
in
rain mn
in
humidity
%
barometer
mb
20260505175558 53 129 4.3 4.3 0.00 0.00 0.00 85 1009.3
20260505174558 53 134 2.6 3.5 0.00 0.00 0.00 84 1009.2
20260505113530 59 67 1.7 3.5 0.00 0.00 0.00 75 1008.3
20260505112530 57 341 1.7 3.5 0.00 0.00 0.00 76 1008.4
20260505111529 56 346 3.5 4.3 0.00 0.00 0.00 78 1008.7
20260505110530 56 352 1.7 2.6 0.00 0.00 0.00 77 1008.7
20260505101526 55 98 2.6 3.5 0.00 0.00 0.00 79 1008.7
20260505100526 54 85 1.7 1.7 0.00 0.00 0.00 80 1008.9
20260505095523 54 227 0.9 2.6 0.00 0.00 0.00 79 1009.0
20260505094522 54 82 2.6 2.6 0.00 0.00 0.00 82 1008.9
20260505093523 53 25 0.9 2.6 0.00 0.00 0.00 80 1009.1
20260505092522 54 59 2.6 3.5 0.00 0.00 0.00 79 1009.0
20260505091522 53 39 0.0 2.6 0.00 0.00 0.00 81 1009.1
20260505090518 53 18 1.7 2.6 0.00 0.00 0.00 80 1009.1
20260505085518 54 66 0.9 2.6 0.00 0.00 0.00 80 1009.1
20260505084518 53 80 0.0 2.6 0.00 0.00 0.00 81 1009.0
20260505083518 53 105 2.6 3.5 0.00 0.00 0.00 81 1009.3
20260505082518 53 105 3.5 3.5 0.00 0.00 0.00 83 1009.3
20260505081515 53 107 3.5 4.3 0.00 0.00 0.00 83 1009.3
20260505080516 53 53 1.7 2.6 0.00 0.00 0.00 86 1009.6
20260505075515 52 45 0.9 2.6 0.00 0.00 0.00 86 1009.4
20260505074515 52 62 2.6 2.6 0.00 0.00 0.00 86 1009.5
20260505073515 52 9 1.7 2.6 0.00 0.00 0.00 88 1009.6
20260505072512 51 125 1.7 2.6 0.00 0.00 0.00 88 1009.6
20260505071512 51 277 0.0 1.7 0.00 0.00 0.00 89 1009.8
20260505070512 51 95 1.7 2.6 0.00 0.00 0.00 90 1009.8
20260505065512 51 36 1.7 5.2 0.00 0.00 0.00 90 1009.8
20260505064512 51 250 0.9 2.6 0.00 0.00 0.00 90 1009.9
20260505063509 51 273 0.9 4.3 0.00 0.00 0.00 91 1009.6
20260505062510 51 100 4.3 4.3 0.00 0.00 0.00 91 1009.7
20260505061509 51 89 1.7 4.3 0.00 0.00 0.00 91 1009.7
20260505060509 50 47 2.6 4.3 0.00 0.00 0.00 91 1009.7
20260505055509 50 96 1.7 4.3 0.00 0.00 0.00 92 1009.8
20260505054505 49 101 2.6 5.2 0.00 0.00 0.00 94 1009.6
20260505053505 48 93 2.6 4.3 0.00 0.00 0.00 94 1009.7
20260505052506 48 60 2.6 4.3 0.00 0.00 0.00 95 1009.4
20260505051505 47 94 3.5 5.2 0.00 0.00 0.00 95 1009.4
20260505050505 47 99 4.3 5.2 0.00 0.00 0.00 95 1009.6